WetterOnline ( http://www.wetteronline.de )

Wetter aktuell Garmisch-Partenkirchen

Aktuelles Wetter: Garmisch-Partenkirchen (719m)

6-stündlich | Neueste Meldungen
Ortszeit Temperatur Wetter
Do, 21.09. 2:00 6.4° C bewölkt
Mi, 20.09. 20:00 7.6° C bewölkt
Mi, 20.09. 14:00 10.7° C bedeckt
Mi, 20.09. 8:00 5.9° C Sprühregen
Ortszeit Temperatur Wetter
Do, 21.09. 7:00 3.2° C leicht bewölkt
Do, 21.09. 6:30 3.6° C leicht bewölkt
Do, 21.09. 6:00 3.8° C fast wolkenlos
Do, 21.09. 5:30 4.6° C bewölkt
Do, 21.09. 5:00 5.3° C wolkig
Do, 21.09. 4:30 5.7° C bedeckt
Ortszeit Relative Feuchte Sichtweite
Do, 21.09. 2:00 95% 35 km
Mi, 20.09. 20:00 93% 40 km
Mi, 20.09. 14:00 80% 70 km
Mi, 20.09. 8:00 97% 55 km
Ortszeit Relative Feuchte Sichtweite
Do, 21.09. 7:00 97% 23 km
Do, 21.09. 6:30 98% 15 km
Do, 21.09. 6:00 97% 17 km
Do, 21.09. 5:30 97% 20 km
Do, 21.09. 5:00 97% 27 km
Do, 21.09. 4:30 97% 15 km
Ortszeit Niederschlagsmenge Niederschlagsart
Do, 21.09. 2:00 0.1 l/m2 in 6 Std. Regen
Mi, 20.09. 20:00 0.2 l/m2 in 12 Std. Regen
Mi, 20.09. 14:00 0.2 l/m2 in 6 Std. Regen
Mi, 20.09. 8:00 4 l/m2 in 12 Std. Regen
Ortszeit Niederschlagsmenge Niederschlagsart
Do, 21.09. 7:00 0.0 l/m2 in 1 Std. -
Do, 21.09. 6:30 keine Meldung -
Do, 21.09. 6:00 0.0 l/m2 in 1 Std. -
Do, 21.09. 5:30 keine Meldung -
Do, 21.09. 5:00 0.0 l/m2 in 1 Std. -
Do, 21.09. 4:30 keine Meldung -
Ortszeit Stärke Spitze Richtung
km/h Bft. km/h Grad Sektor
Do, 21.09. 2:00 0 0 7 - -
Mi, 20.09. 20:00 0 0 18 - -
Mi, 20.09. 14:00 7 2 18 220° SW
Mi, 20.09. 8:00 2 1 13 280° W
Ortszeit Stärke Spitze Richtung
km/h Bft. km/h Grad Sektor
Do, 21.09. 7:00 4 1 11 250° W
Do, 21.09. 6:30 6 1 7 220° SW
Do, 21.09. 6:00 4 1 7 240° SW
Do, 21.09. 5:30 2 1 6 200° S
Do, 21.09. 5:00 2 1 6 200° S
Do, 21.09. 4:30 0 0 4 - -
Ortszeit Untergrenze Bedeckung Gattung
total tief tief mittel hoch
Do, 21.09. 2:00 1800 m 8/8 7/8 - - -
Mi, 20.09. 20:00 1500 m 7/8 7/8 - - -
Mi, 20.09. 14:00 1350 m 8/8 8/8 - - -
Mi, 20.09. 8:00 1470 m 8/8 8/8 - - -
Ortszeit Bedeckungsgrad in Achtel und Wolkenuntergrenze
Do, 21.09. 7:00 2(2100m)
Do, 21.09. 6:30 2(2100m)
Do, 21.09. 6:00 1(2100m)
Do, 21.09. 5:30 7(2100m)
Do, 21.09. 5:00 6(2100m)
Do, 21.09. 4:30 8(2100m)
Ortszeit Luftdruck NN (hPa) Tendenz (hPa in 3 Std.)
Do, 21.09. 2:00 1025 - 0,1
Mi, 20.09. 20:00 1024 + 0,7
Mi, 20.09. 14:00 1022 0,0
Mi, 20.09. 8:00 1023 + 0,5
Ortszeit Luftdruck NN (hPa) Tendenz (hPa in 3 Std.)
Do, 21.09. 7:00 1025 - 0,4
Do, 21.09. 6:30 1025 - 0,3
Do, 21.09. 6:00 1025 - 0,5
Do, 21.09. 5:30 1025 - 0,6
Do, 21.09. 5:00 1025 - 0,5
Do, 21.09. 4:30 1024 - 0,4
Ortszeit Schneehöhe (cm)
Do, 21.09. 2:00 -
Mi, 20.09. 20:00 -
Mi, 20.09. 14:00 -
Mi, 20.09. 8:00 -
Ortszeit Schneehöhe (cm)
Do, 21.09. 7:00 -
Do, 21.09. 6:30 -
Do, 21.09. 6:00 -
Do, 21.09. 5:30 -
Do, 21.09. 5:00 -
Do, 21.09. 4:30 -
Link zu dieser Seite / Seite empfehlen

Das Wetter in ...